Regional Weather Roundup
Issued by NWS

Home | Current Version | Previous Version | Text Only | Print | Product List | Glossary On
Versions: 1 2 3 4 5 6 7 8 9 10 11 12 13 14 15 16 17 18 19 20 21 22 23 24 25 26 27
000
ASUS44 KJAN 110210
RWRMS

MISSISSIPPI HOURLY WEATHER ROUNDUP
NATIONAL WEATHER SERVICE JACKSON MS
800 PM CST SUN DEC 10 2017

NOTE: "FAIR: INDICATES FEW OR NO CLOUDS BELOW 12,000 FEET WITH NO
SIGNIFICANT WEATHER AND/OR OBSTRUCTIONS TO VISIBILITY.

MSZ001>002-007>008-010>013-018>021-025>028-034>036-110300-
NORTHWEST MISSISSIPPI

CITY           SKY/WX    TMP DP  RH WIND       PRES   REMARKS
BATESVILLE     FAIR      41  29  61 SW6       30.23S
CLARKSDALE     CLEAR     45  34  65 S9        30.22S
CLEVELAND      FAIR      42  33  70 S9        30.24S
GREENWOOD      CLEAR     37  30  75 SW8       30.26S WCI  31
GREENVILLE     CLEAR     44  30  57 SW9       30.24S
OLIVE BRANCH   CLEAR     41  28  60 S9        30.18S
TUNICA           N/A    N/A N/A N/A S9        30.21S
WINONA         FAIR      35  29  79 CALM      30.26R
$$

MSZ003>006-009-014>017-022>024-029>033-037>039-110300-
NORTHEAST MISSISSIPPI

CITY           SKY/WX    TMP DP  RH WIND       PRES   REMARKS
ABERDEEN       FAIR      34  28  80 CALM      30.26S
COLUMBUS AFB   CLEAR     34  28  78 CALM      30.25R
CORINTH        FAIR      43  25  49 S6        30.21R
GOLDN TRIANGLE CLEAR     42  27  55 CALM      30.27R
STARKVILLE     FAIR      36  28  75 CALM      30.27R
TUPELO         CLEAR     41  24  51 S6        30.24R
$$

MSZ040-058-110300-
CENTRAL MISSISSIPPI

CITY           SKY/WX    TMP DP  RH WIND       PRES   REMARKS
JACKSON INTL   CLEAR     43  27  53 S7        30.28F
JACKSON HAWKNS CLEAR     45  27  49 CALM      30.29F
MADISON        FAIR      41  28  60 S5        30.28F
MERIDIAN KEY   CLEAR     36  33  89 SW8       30.30S WCI  30
MERIDIAN NAS   CLEAR     38  32  79 SW5       30.29S WCI  34
RAYMOND          N/A     41  30  65 S3        30.29F
VICKSBURG VKS  CLEAR     48  28  46 S5        30.30F
$$

MSZ059>079-110300-
SOUTH MISSISSIPPI

CITY           SKY/WX    TMP DP  RH WIND       PRES   REMARKS
HATTIESBURG    CLEAR     37  36  96 CALM      30.33S
LAUREL         FAIR      35  35 100 CALM      30.32S
MCCOMB         CLEAR     38  34  85 CALM      30.31F
NATCHEZ        CLEAR     38  32  79 S3        30.32F
PINE BELT      CLEAR     35  34  96 CALM      30.32F
$$

MSZ080>082-110300-
COASTAL MISSISSIPPI

CITY           SKY/WX    TMP DP  RH WIND       PRES   REMARKS
BAY ST LOUIS   CLEAR     36  36 100 CALM      30.35R
BILOXI         CLEAR     48  42  79 SW6       30.33R
PASCAGOULA     CLEAR     35  32  88 CALM      30.34S FOG
GULFPORT       CLEAR     42  40  92 CALM      30.34R
$$

LAZ007>009-015>016-023>026-110300-
NORTHEAST LOUISIANA

CITY           SKY/WX    TMP DP  RH WIND       PRES   REMARKS
BASTROP        FAIR      48  31  51 SW3       30.29S
TALLULAH/VBURG CLEAR     44  30  57 CALM      30.30S
VIDALIA          N/A    N/A N/A N/A MISG      30.31F
$$




USA.gov is the U.S. government's official web portal to all federal, state and local government web resources and services.